This is the latest recevied weather packets stored in our database for station/object K8JCL-13. If no packets are shown the sender has not sent any weather packets the latest 10 day(s).
| Time | Temp. | Humidity | Pressure | Rain* | Wind** | Luminosity | Snow |
|---|---|---|---|---|---|---|---|
| 1777998280 | 19.44° C | 79% | 1009.4 hPa | 0 mm | - | 138 W/m² | - |
| 1777997976 | 19.44° C | 79% | 1009.4 hPa | 0 mm | - | 164 W/m² | - |
| 1777997673 | 19.44° C | 78% | 1009.6 hPa | 0 mm | - | 143 W/m² | - |
| 1777997371 | 19.44° C | 78% | 1009.4 hPa | 0 mm | - | 188 W/m² | - |
| 1777997069 | 20° C | 79% | 1009.3 hPa | 0 mm | - | 202 W/m² | - |
| 1777996765 | 20° C | 78% | 1009.3 hPa | 0 mm | - | 205 W/m² | - |
| 1777996462 | 20° C | 80% | 1009.4 hPa | 0 mm | - | 296 W/m² | - |
| 1777996158 | 19.44° C | 80% | 1009.4 hPa | 0 mm | - | 261 W/m² | - |
| 1777995855 | 19.44° C | 80% | 1009.2 hPa | 0 mm | - | 267 W/m² | - |
| 1777995551 | 19.44° C | 81% | 1009.3 hPa | 0 mm | - | 271 W/m² | - |
| 1777995248 | 19.44° C | 79% | 1009.1 hPa | 0 mm | - | 282 W/m² | - |
| 1777994945 | 19.44° C | 80% | 1009.2 hPa | 0 mm | - | 291 W/m² | - |
| 1777994641 | 19.44° C | 81% | 1009.2 hPa | 0 mm | - | 295 W/m² | - |
| 1777994336 | 19.44° C | 81% | 1009.5 hPa | 0 mm | - | 288 W/m² | - |
| 1777994033 | 19.44° C | 81% | 1009.2 hPa | 0 mm | - | 266 W/m² | - |
| 1777993729 | 20° C | 81% | 1009.3 hPa | 0 mm | - | 284 W/m² | - |
| 1777993426 | 20° C | 82% | 1009.3 hPa | 0 mm | - | 303 W/m² | - |
| 1777993121 | 19.44° C | 82% | 1009.3 hPa | 0 mm | - | 353 W/m² | - |
| 1777992819 | 19.44° C | 81% | 1009.1 hPa | 0 mm | - | 399 W/m² | - |
| 1777992516 | 18.89° C | 84% | 1009.2 hPa | 0 mm | - | 383 W/m² | - |
| 1777992215 | 18.89° C | 84% | 1009.1 hPa | 0 mm | - | 334 W/m² | - |
| 1777991912 | 18.33° C | 85% | 1009 hPa | 0 mm | - | 358 W/m² | - |
| 1777991609 | 18.33° C | 85% | 1008.7 hPa | 0 mm | - | 189 W/m² | - |
| 1777991306 | 18.33° C | 85% | 1008.9 hPa | 0 mm | - | 265 W/m² | - |
| 1777991004 | 17.78° C | 87% | 1008.6 hPa | 0 mm | - | 344 W/m² | - |
* Rain latest hour (hover to see other rain measurements)
** Current wind speed in m/s (hover to see current wind gust speed)